CW3846 Weather Reports


Display with metric or nautical units.
time (UTC)temp
F
wind
direction
speed
MPH
gust
MPH
rain 1hr
in
rain 24hr
in
rain mn
in
humidity
%
barometer
mb
20260506071031 65 0 0.0 0.0 0.00 0.00 0.00 27 1013.4
20260506070531 65 0 0.0 0.0 0.00 0.00 0.00 29 1013.4
20260506070107 65 0 0.0 0.0 0.00 0.00 0.00 28 1013.3
20260506062028 66 0 0.0 0.0 0.00 0.00 0.00 27 1013.1
20260506061542 66 0 0.0 0.0 0.00 0.00 0.00 27 1013.3
20260506061031 66 0 0.0 0.0 0.00 0.00 0.00 27 1013.3
20260506060528 66 0 0.0 0.0 0.00 0.00 0.00 27 1013.2
20260506051031 68 0 0.0 0.0 0.00 0.00 0.00 26 1012.8
20260506050528 68 0 0.0 0.0 0.00 0.00 0.00 26 1012.7
20260506045031 68 0 0.0 0.0 0.00 0.00 0.00 25 1012.6
20260506044552 69 0 0.0 0.0 0.00 0.00 0.00 25 1012.5
20260506044031 69 0 0.0 0.0 0.00 0.00 0.00 25 1012.5
20260506043531 69 0 0.0 0.0 0.00 0.00 0.00 25 1012.5
20260506043048 69 0 0.0 0.0 0.00 0.00 0.00 24 1012.5
20260506042530 69 0 0.0 0.0 0.00 0.00 0.00 24 1012.4
20260506042031 69 0 0.0 0.0 0.00 0.00 0.00 25 1012.4
20260506041552 70 0 0.0 0.0 0.00 0.00 0.00 24 1012.4
20260506041028 70 0 0.0 0.0 0.00 0.00 0.00 23 1012.3
20260506040531 70 0 0.0 0.0 0.00 0.00 0.00 23 1012.2
20260506040046 70 0 0.0 0.0 0.00 0.00 0.00 23 1012.1
20260506035532 70 0 0.0 0.0 0.00 0.00 0.00 23 1012.1
20260506035030 70 0 0.0 0.0 0.00 0.00 0.00 23 1012.0
20260506034542 71 0 0.0 0.0 0.00 0.00 0.00 22 1012.0
20260506034030 71 0 0.0 0.0 0.00 0.00 0.00 22 1011.8
20260506033530 71 0 0.0 0.0 0.00 0.00 0.00 22 1011.9
20260506033040 71 0 0.0 0.0 0.00 0.00 0.00 22 1011.7
20260506032530 71 0 0.0 0.0 0.00 0.00 0.00 21 1011.7
20260506032031 71 0 0.0 0.0 0.00 0.00 0.00 21 1011.6
20260506031556 72 0 0.0 0.0 0.00 0.00 0.00 21 1011.5
20260506031029 72 0 0.0 0.0 0.00 0.00 0.00 21 1011.4
20260506030528 72 0 0.0 0.0 0.00 0.00 0.00 20 1011.4
20260506030105 72 0 0.0 0.0 0.00 0.00 0.00 20 1011.4
20260506025533 72 0 0.0 0.0 0.00 0.00 0.00 19 1011.3
20260506025031 73 0 0.0 0.0 0.00 0.00 0.00 19 1011.3
20260506024553 73 0 0.0 0.0 0.00 0.00 0.00 19 1011.2
20260506024032 73 0 0.0 0.0 0.00 0.00 0.00 19 1011.2
20260506023532 73 0 0.0 0.0 0.00 0.00 0.00 19 1011.1
20260506023042 73 0 0.0 1.0 0.00 0.00 0.00 19 1011.0
20260506022531 73 0 0.0 1.0 0.00 0.00 0.00 19 1011.0
20260506022031 74 229 0.0 0.0 0.00 0.00 0.00 19 1010.8
20260506021546 74 0 0.0 0.0 0.00 0.00 0.00 19 1010.8
20260506021027 74 0 0.0 0.0 0.00 0.00 0.00 18 1010.7
20260506020630 74 0 0.0 1.0 0.00 0.00 0.00 18 1010.7
20260506020046 75 0 0.0 1.0 0.00 0.00 0.00 18 1010.6
20260506015532 75 0 0.0 2.0 0.00 0.00 0.00 17 1010.5
20260506015033 75 0 0.0 2.0 0.00 0.00 0.00 17 1010.5
20260506014543 75 0 0.0 3.0 0.00 0.00 0.00 17 1010.4
20260506014032 76 0 0.0 3.0 0.00 0.00 0.00 17 1010.3
20260506013532 76 0 0.0 1.0 0.00 0.00 0.00 17 1010.4
20260506013046 76 0 0.0 2.0 0.00 0.00 0.00 17 1010.2
20260506012532 76 0 0.0 2.0 0.00 0.00 0.00 17 1010.3
20260506012032 77 0 0.0 4.0 0.00 0.00 0.00 17 1010.2
20260506011540 77 0 0.0 4.0 0.00 0.00 0.00 17 1010.3
20260506011032 77 0 0.0 2.0 0.00 0.00 0.00 16 1010.2
20260506010530 78 0 0.0 2.0 0.00 0.00 0.00 16 1010.1
20260506010045 78 0 0.0 2.0 0.00 0.00 0.00 16 1010.2
20260506005530 78 0 0.0 1.0 0.00 0.00 0.00 16 1010.0
20260506005034 78 0 0.0 1.0 0.00 0.00 0.00 16 1010.0
20260506004620 78 0 0.0 1.0 0.00 0.00 0.00 16 1010.0
20260506004033 79 0 0.0 1.0 0.00 0.00 0.00 15 1010.0
20260506003533 79 0 0.0 1.0 0.00 0.00 0.00 16 1009.9
20260506003045 79 0 0.0 3.0 0.00 0.00 0.00 16 1009.8
20260506002532 79 0 0.0 3.0 0.00 0.00 0.00 16 1009.8
20260506002034 79 0 0.0 1.0 0.00 0.00 0.00 16 1009.7
20260506001550 79 0 0.0 1.0 0.00 0.00 0.00 16 1009.7
20260506001033 78 0 0.0 1.0 0.00 0.00 0.00 16 1009.7
20260506000533 79 0 0.0 1.0 0.00 0.00 0.00 16 1009.6
20260506000051 79 0 0.0 1.0 0.00 0.00 0.00 17 1009.7
20260505235532 79 0 0.0 4.0 0.00 0.00 0.00 17 1009.6
20260505235032 78 0 0.0 4.0 0.00 0.00 0.00 17 1009.6
20260505234611 78 0 0.0 4.0 0.00 0.00 0.00 17 1009.6
20260505234032 78 0 0.0 2.0 0.00 0.00 0.00 17 1009.6
20260505233529 79 0 0.0 2.0 0.00 0.00 0.00 17 1009.6
20260505233045 79 277 0.0 2.0 0.00 0.00 0.00 17 1009.6
20260505232530 79 0 0.0 2.0 0.00 0.00 0.00 17 1009.5
20260505232031 79 0 0.0 2.0 0.00 0.00 0.00 17 1009.5
20260505231546 80 0 0.0 2.0 0.00 0.00 0.00 17 1009.6
20260505231032 80 0 0.0 2.0 0.00 0.00 0.00 16 1009.6
20260505230528 80 0 0.0 2.0 0.00 0.00 0.00 17 1009.6
20260505230047 80 0 0.0 2.0 0.00 0.00 0.00 17 1009.7
20260505225531 80 0 0.0 4.0 0.00 0.00 0.00 16 1009.7
20260505225033 80 0 0.0 4.0 0.00 0.00 0.00 17 1009.8
20260505224543 80 0 0.0 2.0 0.00 0.00 0.00 16 1009.7
20260505224032 80 0 0.0 4.0 0.00 0.00 0.00 17 1009.8
20260505223532 80 0 0.0 4.0 0.00 0.00 0.00 17 1009.8
20260505223100 80 0 0.0 2.0 0.00 0.00 0.00 17 1010.0
20260505222535 80 0 0.0 2.0 0.00 0.00 0.00 17 1010.0
20260505222030 81 0 0.0 4.0 0.00 0.00 0.00 17 1010.2
20260505221556 81 0 0.0 4.0 0.00 0.00 0.00 16 1010.3
20260505221031 81 0 0.0 1.0 0.00 0.00 0.00 17 1010.3
20260505220532 80 0 0.0 1.0 0.00 0.00 0.00 17 1010.3
20260505220050 80 0 0.0 2.0 0.00 0.00 0.00 18 1010.4
20260505215532 80 0 0.0 2.0 0.00 0.00 0.00 18 1010.6
20260505215032 80 0 0.0 1.0 0.00 0.00 0.00 18 1010.6
20260505214547 81 0 0.0 1.0 0.00 0.00 0.00 17 1010.6
20260505214032 81 0 0.0 3.0 0.00 0.00 0.00 17 1010.8
20260505213530 81 0 0.0 3.0 0.00 0.00 0.00 17 1010.7
20260505213041 81 196 0.0 3.0 0.00 0.00 0.00 17 1010.7
20260505212532 81 0 0.0 3.0 0.00 0.00 0.00 17 1010.7
20260505212030 81 0 0.0 2.0 0.00 0.00 0.00 17 1010.8
20260505211554 80 0 0.0 3.0 0.00 0.00 0.00 18 1010.9
20260505211030 80 254 0.0 3.0 0.00 0.00 0.00 18 1010.9
20260505210531 80 0 0.0 2.0 0.00 0.00 0.00 18 1011.1
20260505210046 80 0 0.0 2.0 0.00 0.00 0.00 18 1011.2
20260505205532 79 0 0.0 2.0 0.00 0.00 0.00 19 1011.1
20260505205030 79 227 0.0 1.0 0.00 0.00 0.00 19 1011.2
20260505204542 79 0 0.0 1.0 0.00 0.00 0.00 19 1011.1
20260505204029 78 0 0.0 1.0 0.00 0.00 0.00 20 1011.1
20260505203531 79 0 0.0 1.0 0.00 0.00 0.00 20 1011.3
20260505203045 80 0 0.0 3.0 0.00 0.00 0.00 20 1011.3
20260505202531 80 0 0.0 3.0 0.00 0.00 0.00 20 1011.3
20260505202032 80 0 0.0 3.0 0.00 0.00 0.00 19 1011.3
20260505201554 80 0 0.0 3.0 0.00 0.00 0.00 20 1011.1
20260505201030 79 0 0.0 2.0 0.00 0.00 0.00 20 1011.2
20260505200532 79 0 0.0 2.0 0.00 0.00 0.00 20 1011.3
20260505200056 79 0 0.0 3.0 0.00 0.00 0.00 19 1011.4
20260505195531 79 0 0.0 3.0 0.00 0.00 0.00 19 1011.4
20260505195029 79 254 0.0 3.0 0.00 0.00 0.00 19 1011.3
20260505194544 79 257 0.0 2.0 0.00 0.00 0.00 19 1011.5
20260505194032 79 0 0.0 3.0 0.00 0.00 0.00 19 1011.4
20260505193530 79 0 0.0 3.0 0.00 0.00 0.00 19 1011.4
20260505193042 79 0 0.0 3.0 0.00 0.00 0.00 20 1011.4
20260505192612 78 205 0.0 3.0 0.00 0.00 0.00 21 1011.4
20260505192032 78 0 0.0 2.0 0.00 0.00 0.00 21 1011.5
20260505191547 78 0 0.0 2.0 0.00 0.00 0.00 21 1011.5
20260505191031 78 0 0.0 1.0 0.00 0.00 0.00 21 1011.5
20260505190532 78 0 0.0 1.0 0.00 0.00 0.00 21 1011.6
20260505190046 77 0 0.0 1.0 0.00 0.00 0.00 21 1011.8
20260505185532 77 0 0.0 1.0 0.00 0.00 0.00 22 1011.8
20260505185031 77 0 0.0 7.0 0.00 0.00 0.00 23 1011.8
20260505184545 77 0 0.0 7.0 0.00 0.00 0.00 23 1011.8
20260505184031 76 0 0.0 2.0 0.00 0.00 0.00 23 1011.7
20260505183531 75 0 0.0 2.0 0.00 0.00 0.00 25 1011.9
20260505183048 75 0 0.0 3.0 0.00 0.00 0.00 24 1011.9
20260505182533 75 0 0.0 3.0 0.00 0.00 0.00 25 1012.1
20260505182031 75 0 0.0 3.0 0.00 0.00 0.00 25 1012.0
20260505181544 75 0 0.0 3.0 0.00 0.00 0.00 24 1012.1
20260505181033 75 203 0.0 1.0 0.00 0.00 0.00 25 1012.0
20260505180533 74 0 0.0 1.0 0.00 0.00 0.00 25 1012.1
20260505180041 74 0 0.0 1.0 0.00 0.00 0.00 26 1012.2
20260505175532 74 0 0.0 1.0 0.00 0.00 0.00 26 1012.2
20260505175032 74 0 0.0 1.0 0.00 0.00 0.00 27 1012.1
20260505174552 73 0 0.0 1.0 0.00 0.00 0.00 27 1012.1
20260505174032 73 0 0.0 0.0 0.00 0.00 0.00 27 1012.1
20260505173533 73 0 0.0 0.0 0.00 0.00 0.00 26 1012.1
20260505173048 73 0 0.0 0.0 0.00 0.00 0.00 27 1012.0
20260505172529 72 0 0.0 0.0 0.00 0.00 0.00 27 1012.0
20260505172029 72 0 0.0 0.0 0.00 0.00 0.00 27 1012.1
20260505171543 72 0 0.0 0.0 0.00 0.00 0.00 27 1012.0
20260505171029 72 0 0.0 0.0 0.00 0.00 0.00 29 1012.0
20260505170529 72 0 0.0 0.0 0.00 0.00 0.00 28 1012.0
20260505170043 72 0 0.0 0.0 0.00 0.00 0.00 28 1012.0
20260505165530 72 0 0.0 0.0 0.00 0.00 0.00 29 1011.9
20260505165031 71 0 0.0 0.0 0.00 0.00 0.00 29 1012.0
20260505164546 71 0 0.0 3.0 0.00 0.00 0.00 30 1012.0
20260505164032 70 0 0.0 3.0 0.00 0.00 0.00 30 1012.0
20260505163531 69 0 0.0 0.0 0.00 0.00 0.00 32 1012.0
20260505163045 69 0 0.0 0.0 0.00 0.00 0.00 31 1012.1
20260505162530 69 0 0.0 0.0 0.00 0.00 0.00 30 1012.1
20260505162029 69 0 0.0 0.0 0.00 0.00 0.00 31 1012.1
20260505161558 68 0 0.0 0.0 0.00 0.00 0.00 32 1012.2
20260505161029 68 0 0.0 0.0 0.00 0.00 0.00 31 1012.1
20260505160532 68 0 0.0 0.0 0.00 0.00 0.00 31 1012.2
20260505153048 67 0 0.0 0.0 0.00 0.00 0.00 34 1012.1
20260505152531 67 0 0.0 0.0 0.00 0.00 0.00 34 1012.1
20260505152033 67 0 0.0 0.0 0.00 0.00 0.00 34 1012.2
20260505151546 67 0 0.0 0.0 0.00 0.00 0.00 34 1012.2
20260505151031 67 0 0.0 0.0 0.00 0.00 0.00 34 1012.2
20260505150529 67 0 0.0 0.0 0.00 0.00 0.00 35 1012.1
20260505140529 65 0 0.0 0.0 0.00 0.00 0.00 40 1011.8
20260505125031 64 0 0.0 0.0 0.00 0.00 0.00 52 1011.3
20260505124548 64 0 0.0 0.0 0.00 0.00 0.00 52 1011.2
20260505124032 64 0 0.0 0.0 0.00 0.00 0.00 52 1011.2
20260505123531 64 0 0.0 0.0 0.00 0.00 0.00 52 1011.1
20260505123042 64 0 0.0 0.0 0.00 0.00 0.00 52 1011.2
20260505122532 64 0 0.0 0.0 0.00 0.00 0.00 52 1011.0
20260505122032 64 0 0.0 0.0 0.00 0.00 0.00 52 1011.1
20260505121542 64 0 0.0 0.0 0.00 0.00 0.00 52 1011.1
20260505121031 65 0 0.0 0.0 0.00 0.00 0.00 52 1011.0
20260505120528 65 0 0.0 0.0 0.00 0.00 0.00 51 1011.1
20260505120051 65 0 0.0 0.0 0.00 0.00 0.00 50 1010.9
20260505115528 65 0 0.0 0.0 0.00 0.00 0.00 50 1011.0
20260505115032 65 0 0.0 0.0 0.00 0.00 0.00 49 1010.9
20260505114547 65 0 0.0 0.0 0.00 0.00 0.00 49 1010.8
20260505114034 66 0 0.0 0.0 0.00 0.00 0.00 49 1010.8
20260505113533 66 0 0.0 0.0 0.00 0.00 0.00 48 1010.8
20260505113041 66 0 0.0 0.0 0.00 0.00 0.00 48 1010.9
20260505112533 66 0 0.0 0.0 0.00 0.00 0.00 48 1010.9
20260505112031 66 0 0.0 0.0 0.00 0.00 0.00 47 1010.7
20260505111539 66 0 0.0 0.0 0.00 0.00 0.00 48 1010.7
20260505111031 66 0 0.0 0.0 0.00 0.00 0.00 47 1010.6
20260505110532 66 0 0.0 0.0 0.00 0.00 0.00 47 1010.6
20260505102034 67 0 0.0 0.0 0.00 0.00 0.00 44 1011.1
20260505101543 67 0 0.0 0.0 0.00 0.00 0.00 44 1011.0
20260505101032 67 0 0.0 0.0 0.00 0.00 0.00 43 1011.1
20260505100529 67 0 0.0 0.0 0.00 0.00 0.00 43 1011.1
20260505100041 67 0 0.0 0.0 0.00 0.00 0.00 43 1011.2
20260505095529 67 0 0.0 0.0 0.00 0.00 0.00 43 1011.2
20260505095031 67 0 0.0 0.0 0.00 0.00 0.00 43 1011.3
20260505094545 67 0 0.0 0.0 0.00 0.00 0.00 43 1011.4
20260505094029 68 0 0.0 1.0 0.00 0.00 0.00 43 1011.5
20260505093531 68 0 0.0 1.0 0.00 0.00 0.00 43 1011.5
20260505093045 68 0 0.0 1.0 0.00 0.00 0.00 43 1011.5
20260505092531 68 0 0.0 1.0 0.00 0.00 0.00 43 1011.6
20260505092029 68 0 0.0 1.0 0.00 0.00 0.00 42 1011.5
20260505091552 68 0 0.0 1.0 0.00 0.00 0.00 40 1011.6
20260505091028 68 0 0.0 1.0 0.00 0.00 0.00 40 1011.7
20260505090531 69 0 0.0 1.0 0.00 0.00 0.00 40 1011.8
20260505090048 69 0 0.0 0.0 0.00 0.00 0.00 40 1011.7
20260505085529 69 0 0.0 0.0 0.00 0.00 0.00 39 1011.8
20260505085031 69 0 0.0 0.0 0.00 0.00 0.00 39 1011.8
20260505084548 69 0 0.0 1.0 0.00 0.00 0.00 38 1011.8
20260505084031 69 0 0.0 1.0 0.00 0.00 0.00 38 1011.8
20260505083533 69 0 0.0 1.0 0.00 0.00 0.00 38 1011.9
20260505083041 69 0 0.0 1.0 0.00 0.00 0.00 37 1011.9
20260505082530 69 0 0.0 1.0 0.00 0.00 0.00 37 1011.9
20260505082030 69 0 0.0 1.0 0.00 0.00 0.00 37 1012.0
20260505081538 69 0 0.0 2.0 0.00 0.00 0.00 36 1012.2
20260505081031 69 0 0.0 2.0 0.00 0.00 0.00 36 1012.2
20260505080528 70 0 0.0 2.0 0.00 0.00 0.00 34 1012.2
20260505080053 70 0 0.0 0.0 0.00 0.00 0.00 33 1012.2
20260505075528 70 0 0.0 0.0 0.00 0.00 0.00 32 1012.1
20260505075032 70 0 0.0 0.0 0.00 0.00 0.00 31 1012.1
20260505074544 70 0 0.0 3.0 0.00 0.00 0.00 31 1012.1
20260505074030 70 0 0.0 3.0 0.00 0.00 0.00 30 1012.2
20260505073531 70 0 0.0 0.0 0.00 0.00 0.00 30 1012.1
20260505073046 70 0 0.0 0.0 0.00 0.00 0.00 30 1012.1
20260505072531 70 0 0.0 0.0 0.00 0.00 0.00 30 1012.0
20260505072031 70 0 0.0 0.0 0.00 0.00 0.00 31 1011.9
20260505071540 71 0 0.0 0.0 0.00 0.00 0.00 30 1011.9